星链-1651 (STARLINK-1651 )

导读 | 星芒AI

STARLINK-1651 是 SpaceX Starlink 卫星互联网项目中的第 1,651 颗卫星,属于低轨通信卫星群的一部分。它于 2023 年发射,旨在为全球用户提供高速、低延迟的互联网服务。该卫星采用现代化设计,配备先进推进系统和激光通信设备,以提升网络性能和卫星间通信效率。Starlink 项目致力于覆盖偏远地区,减少数字鸿沟,同时支持应急通信和商业应用。STARLINK-1651 的成功部署进一步增强了 Starlink 网络的稳定性和覆盖范围。

基本信息
目录编号:
46366
目录名称:
STARLINK-1651
国际标识:
2020-062AT
轨道中心:
EARTH
卫星名称:
星链-1651
卫星全名:
星链-1651 (STARLINK-1651 )
卫星状态:
在轨 (已飞行1882 天)
发射日期:
2020-09-03 UTC
国别 :
美国 (US)
星等 :
--
轨道信息
数据来源 国际轨道数据
星历时间: 2025-10-28T18:27:20+0800
1天前
查看轨道信息
半长轴: 6821.707km
偏心率: 0.0009459
轨道倾角: 53.047°
近地点辐角 119.183°
升交点赤经 196.821°
平近点角 241.013°
近地点: 437.119km
远地点: 450.025km
周期: 93.454分钟
每日圈数: 15.408601
详细信息
固有亮度:
5
最大亮度:
2.5
卫星平台:
Starlink V1.0
覆盖范围:
全球
运营商:
太空探索技术公司
运营商所在国:
美国
制造商(研发单位):
太空探索技术公司
制造商所在国:
美国
使用方式:
暂无
卫星简介
星链(Starlink)计划是由太空探索技术公司(SpaceX)提出的一个巨型低轨卫星互联网星座项目,计划在2019年至2024年间在太空搭建由约1.2万颗卫星组成的“星链”网络,其中1584颗将部署在地球上空550千米处的近地轨道,并从2020年开始工作。该卫星仍在工作。
2D轨道图
3D轨道图
轨道高度分析图
轨道倾角分析图
轨道综合分析图
查看轨道综合分析图